Regional Weather Roundup
Issued by NWS

Home | Current Version | Previous Version | Text Only | Print | Product List | Glossary Off
Versions: 1 2 3 4 5 6 7 8 9 10 11 12 13 14 15 16 17 18 19 20 21 22 23 24 25 26 27 28 29 30 31 32 33 34 35 36 37 38 39 40 41 42 43 44 45 46 47 48 49 50

749
ASUS43 KIND 231909
RWRIN

WEATHER ROUNDUP FOR INDIANA
NATIONAL WEATHER SERVICE INDIANAPOLIS IN
300 PM EDT MON OCT 23 2017

NOTE: "FAIR" INDICATES FEW OR NO CLOUDS BELOW 12,000 FEET WITH NO
SIGNIFICANT WEATHER AND/OR OBSTRUCTIONS TO VISIBILITY.

* - STATION DOES NOT REPORT WEATHER SUCH AS PRECIPITATION OR FOG.

+ - STATION NOT QUALITY CONTROLLED BY THE NATIONAL WEATHER SERVICE.
    USE DATA WITH CAUTION...ESPECIALLY DEWPOINT AND RELATIVE
    HUMIDITY OBSERVATIONS.

INZ001>003-010>013-019-020-232000-
NORTHWEST INDIANA

CITY           SKY/WX    TMP DP  RH WIND       PRES   REMARKS
GARY /AIRPORT/ RAIN      54  48  82 NW9G21    29.70
KNOX *+        CLOUDY    54  54 100 NW13      29.63F
LA PORTE +     RAIN      53  52  95 N17G25    29.65F
MICHIGAN CITY+ HVY RAIN  52  52 100 N12G20    29.67F
MONTICELLO +   RAIN      55  54  95 NW17G24   29.63F
RENSSELAER +   LGT RAIN  52  45  76 NW16G24   29.67F
VALPARAISO     LGT RAIN  54  52  93 NW13G21   29.65F

$$

LMZ046-743>745-232000-
SOUTHERN LAKE MICHIGAN

STATION/POSITION TIME  TEMP    WIND        PRES    WAVE
                       AIR SEA DIR/SP/G            HT
                 (UTC) (F)     (DEG/KT/KT) (MB)    (FT)
BURNS HARBOR     1840   54     350/ 20/ 23 1005.8F
MICHIGAN CITY    1840   53     340/ 25/ 27   N/A
5NW MICH CITY    1900   53 57  340/ 17/ 23   N/A     7

$$

INZ004-005-014>016-021>024-232000-
NORTH CENTRAL INDIANA

CITY           SKY/WX    TMP DP  RH WIND       PRES   REMARKS
ELKHART        LGT RAIN  54  54 100 N6        29.59F FOG
GOSHEN         LGT RAIN  61  58  90 N3        29.57F FOG
LOGANSPORT +   LGT RAIN  54  54 100 NW12G22   29.63R
PERU/GRISSOM   DRIZZLE   56  56 100 W15       29.61R
SOUTH BEND     RAIN      53  32  44 NW12      29.63F
WARSAW +       LGT RAIN  61  61 100 E5        29.56F

$$

INZ006>009-017-018-025>027-232000-
NORTHEAST INDIANA

CITY           SKY/WX    TMP DP  RH WIND       PRES   REMARKS
AUBURN +       CLOUDY    63  59  88 SE5       29.59F
FORT WAYNE     LGT RAIN  61  59  93 S16       29.58F FOG
HUNTINGTON +   RAIN      60  59  96 S13       29.57F
KENDALLVILLE + DRIZZLE   61  61  97 SE8       29.57F

$$

INZ028-029-035-036-043>045-051>053-232000-
WEST CENTRAL INDIANA

CITY           SKY/WX    TMP DP  RH WIND       PRES   REMARKS
GREENCASTLE +  LGT RAIN  55  54  94 W5        29.72R
LAFAYETTE      CLOUDY    54  54 100 NW8G21    29.66F
TERRE HAUTE    CLOUDY    55  51  86 NW14G22   29.73R

$$

INZ030>032-037>040-046>048-054>057-064-065-232000-
CENTRAL INDIANA

CITY           SKY/WX    TMP DP  RH WIND       PRES   REMARKS
ANDERSON       CLOUDY    63  57  82 S17G23    29.65F
CP ATTERBURY + CLOUDY    57  55  94 SW6       29.71S
COLUMBUS       CLOUDY    57  55  94 SW10      29.72R
FISHERS *+     CLOUDY    57  57 100 SW8       29.67R
FRANKFORT +    CLOUDY   N/A N/A N/A NW9       29.69R
GREENWOOD *+   CLOUDY    61  58  90 SW7       29.70R
INDIANAPOLIS   LGT RAIN  59  57  93 SW14      29.68R
-EAGLE CREEK   LGT RAIN  58  55  90 W8        29.67R
KOKOMO +       LGT RAIN  57  56  96 W18G25    29.64R
MT COMFORT *+  CLOUDY    59  59 100 SW9       29.68R
SHELBYVILLE    LGT RAIN  60  55  83 SW10      29.69R
ZIONSVILLE +   RAIN      56  55  97 W10       29.68R

$$

INZ033-034-041-042-049-050-058-059-232000-
EAST CENTRAL INDIANA

CITY           SKY/WX    TMP DP  RH WIND       PRES   REMARKS
MUNCIE         CLOUDY    65  56  72 SW13G24   29.63F
RICHMOND +     LGT RAIN  61  59  94 S10       29.69S

$$

INZ060-061-067>069-081>083-085>088-232000-
SOUTHWEST INDIANA

CITY           SKY/WX    TMP DP  RH WIND       PRES   REMARKS
EVANSVILLE     LGT RAIN  54  52  93 W12       29.78F FOG
HUNTINGBURG +  CLOUDY    56  53  90 SW13      29.76S
WASHINGTON +   DRIZZLE   55  54  94 W5        29.74R

$$

INZ062-063-066-070>080-084-089>092-232000-
SOUTH CENTRAL AND SOUTHEAST INDIANA

CITY           SKY/WX    TMP DP  RH WIND       PRES   REMARKS
BEDFORD +      CLOUDY    55  54  94 SW8       29.72R FOG
BLOOMINGTON    LGT RAIN  56  53  90 W6        29.71F FOG
MADISON *+     CLOUDY    61  57  88 SW3       29.73F
NORTH VERNON + LGT RAIN  57  55  94 W8        29.71F
SEYMOUR +      CLOUDY    59  55  88 SW8       29.72S

$$





USA.gov is the U.S. government's official web portal to all federal, state and local government web resources and services.